Year,Month,Day,Hour,Minute,Value (Times are PST for windspeed in km/hr)
2016,03,12,00,00,8.20
2016,03,12,00,01,6.30
2016,03,12,00,02,11.70
2016,03,12,00,03,11.00
2016,03,12,00,04,12.00
2016,03,12,00,05,9.80
2016,03,12,00,06,10.70
2016,03,12,00,07,12.80
2016,03,12,00,08,13.70
2016,03,12,00,09,11.80
2016,03,12,00,10,11.30
2016,03,12,00,11,9.50
2016,03,12,00,12,9.40
2016,03,12,00,13,10.10
2016,03,12,00,14,9.70
2016,03,12,00,15,10.80
2016,03,12,00,16,9.80
2016,03,12,00,17,9.20
2016,03,12,00,18,7.70
2016,03,12,00,19,10.70
2016,03,12,00,20,10.30
2016,03,12,00,21,11.30
2016,03,12,00,22,12.40
2016,03,12,00,23,5.80
2016,03,12,00,24,6.30
2016,03,12,00,25,10.70
2016,03,12,00,26,12.00
2016,03,12,00,27,13.20
2016,03,12,00,28,11.10
2016,03,12,00,29,13.80
2016,03,12,00,30,15.50
2016,03,12,00,31,10.00
2016,03,12,00,32,11.60
2016,03,12,00,33,14.20
2016,03,12,00,34,12.50
2016,03,12,00,35,10.90
2016,03,12,00,36,12.60
2016,03,12,00,37,15.20
2016,03,12,00,38,14.00
2016,03,12,00,39,11.20
2016,03,12,00,40,12.40
2016,03,12,00,41,12.30
2016,03,12,00,42,12.90
2016,03,12,00,43,9.10
2016,03,12,00,44,8.10
2016,03,12,00,45,10.70
2016,03,12,00,46,10.50
2016,03,12,00,47,9.20
2016,03,12,00,48,6.60
2016,03,12,00,49,12.90
2016,03,12,00,50,6.50
2016,03,12,00,51,9.60
2016,03,12,00,52,12.80
2016,03,12,00,53,13.10
2016,03,12,00,54,10.50
2016,03,12,00,55,15.60
2016,03,12,00,56,9.60
2016,03,12,00,57,5.70
2016,03,12,00,58,15.20
2016,03,12,00,59,20.30
2016,03,12,01,00,12.70
2016,03,12,01,01,17.30
2016,03,12,01,02,13.80
2016,03,12,01,03,13.80
2016,03,12,01,04,13.70
2016,03,12,01,05,10.30
2016,03,12,01,06,12.50
2016,03,12,01,07,13.80
2016,03,12,01,08,17.30
2016,03,12,01,09,15.00
2016,03,12,01,10,11.10
2016,03,12,01,11,13.90
2016,03,12,01,12,13.60
2016,03,12,01,13,14.80
2016,03,12,01,14,11.50
2016,03,12,01,15,13.70
2016,03,12,01,16,9.50
2016,03,12,01,17,13.90
2016,03,12,01,18,15.40
2016,03,12,01,19,11.40
2016,03,12,01,20,12.60
2016,03,12,01,21,7.40
2016,03,12,01,22,12.60
2016,03,12,01,23,9.60
2016,03,12,01,24,6.30
2016,03,12,01,25,10.00
2016,03,12,01,26,8.80
2016,03,12,01,27,9.20
2016,03,12,01,28,10.00
2016,03,12,01,29,14.50
2016,03,12,01,30,15.60
2016,03,12,01,31,16.00
2016,03,12,01,32,12.30
2016,03,12,01,33,8.60
2016,03,12,01,34,10.00
2016,03,12,01,35,11.30
2016,03,12,01,36,15.00
2016,03,12,01,37,18.60
2016,03,12,01,38,14.60
2016,03,12,01,39,14.50
2016,03,12,01,40,17.00
2016,03,12,01,41,16.50
2016,03,12,01,42,15.90
2016,03,12,01,43,16.30
2016,03,12,01,44,19.20
2016,03,12,01,45,17.00
2016,03,12,01,46,19.20
2016,03,12,01,47,18.90
2016,03,12,01,48,18.20
2016,03,12,01,49,18.50
2016,03,12,01,50,21.00
2016,03,12,01,51,17.90
2016,03,12,01,52,22.70
2016,03,12,01,53,24.90
2016,03,12,01,54,24.00
2016,03,12,01,55,22.70
2016,03,12,01,56,23.50
2016,03,12,01,57,24.50
2016,03,12,01,58,22.90
2016,03,12,01,59,21.60
2016,03,12,02,00,21.20
2016,03,12,02,01,20.40
2016,03,12,02,02,20.10
2016,03,12,02,03,15.60
2016,03,12,02,04,17.70
2016,03,12,02,05,18.40
2016,03,12,02,06,12.40
2016,03,12,02,07,11.50
2016,03,12,02,08,15.00
2016,03,12,02,09,14.80
2016,03,12,02,10,15.60
2016,03,12,02,11,19.80
2016,03,12,02,12,14.80
2016,03,12,02,13,16.50
2016,03,12,02,14,11.20
2016,03,12,02,15,10.90
2016,03,12,02,16,13.50
2016,03,12,02,17,17.60
2016,03,12,02,18,16.30
2016,03,12,02,19,14.50
2016,03,12,02,20,15.00
2016,03,12,02,21,14.20
2016,03,12,02,22,10.50
2016,03,12,02,23,11.10
2016,03,12,02,24,10.10
2016,03,12,02,25,7.10
2016,03,12,02,26,8.80
2016,03,12,02,27,9.50
2016,03,12,02,28,7.60
2016,03,12,02,29,7.30
2016,03,12,02,30,5.80
2016,03,12,02,31,2.60
2016,03,12,02,32,5.60
2016,03,12,02,33,9.40
2016,03,12,02,34,6.70
2016,03,12,02,35,6.20
2016,03,12,02,36,9.10
2016,03,12,02,37,8.50
2016,03,12,02,38,9.70
2016,03,12,02,39,8.70
2016,03,12,02,40,6.90
2016,03,12,02,41,10.90
2016,03,12,02,42,11.40
2016,03,12,02,43,11.50
2016,03,12,02,44,12.80
2016,03,12,02,45,12.80
2016,03,12,02,46,12.80
2016,03,12,02,47,18.00
2016,03,12,02,48,16.50
2016,03,12,02,49,10.70
2016,03,12,02,50,15.10
2016,03,12,02,51,15.60
2016,03,12,02,52,16.90
2016,03,12,02,53,13.90
2016,03,12,02,54,14.40
2016,03,12,02,55,10.00
2016,03,12,02,56,5.70
2016,03,12,02,57,9.40
2016,03,12,02,58,8.80
2016,03,12,02,59,9.40
2016,03,12,03,00,7.90
2016,03,12,03,01,9.10
2016,03,12,03,02,9.50
2016,03,12,03,03,12.40
2016,03,12,03,04,11.00
2016,03,12,03,05,12.60
2016,03,12,03,06,11.20
2016,03,12,03,07,10.70
2016,03,12,03,08,11.20
2016,03,12,03,09,7.00
2016,03,12,03,10,8.00
2016,03,12,03,11,13.80
2016,03,12,03,12,11.90
2016,03,12,03,13,11.70
2016,03,12,03,14,12.10
2016,03,12,03,15,12.60
2016,03,12,03,16,15.10
2016,03,12,03,17,14.30
2016,03,12,03,18,14.30
2016,03,12,03,19,18.70
2016,03,12,03,20,17.30
2016,03,12,03,21,17.60
2016,03,12,03,22,18.60
2016,03,12,03,23,19.30
2016,03,12,03,24,23.20
2016,03,12,03,25,22.80
2016,03,12,03,26,22.30
2016,03,12,03,27,20.10
2016,03,12,03,28,27.90
2016,03,12,03,29,20.00
2016,03,12,03,30,19.40
2016,03,12,03,31,20.10
2016,03,12,03,32,19.10
2016,03,12,03,33,23.80
2016,03,12,03,34,21.90
2016,03,12,03,35,18.80
2016,03,12,03,36,17.10
2016,03,12,03,37,18.30
2016,03,12,03,38,18.00
2016,03,12,03,39,17.80
2016,03,12,03,40,16.00
2016,03,12,03,41,12.00
2016,03,12,03,42,12.90
2016,03,12,03,43,11.90
2016,03,12,03,44,13.50
2016,03,12,03,45,15.40
2016,03,12,03,46,15.70
2016,03,12,03,47,16.00
2016,03,12,03,48,17.70
2016,03,12,03,49,14.40
2016,03,12,03,50,8.30
2016,03,12,03,51,8.20
2016,03,12,03,52,5.70
2016,03,12,03,53,4.50
2016,03,12,03,54,4.80
2016,03,12,03,55,3.70
2016,03,12,03,56,1.10
2016,03,12,03,57,0.70
2016,03,12,03,58,2.10
2016,03,12,03,59,6.40
2016,03,12,04,00,12.60
2016,03,12,04,01,11.70
2016,03,12,04,02,10.30
2016,03,12,04,03,7.50
2016,03,12,04,04,7.40
2016,03,12,04,05,5.60
2016,03,12,04,06,4.90
2016,03,12,04,07,8.80
2016,03,12,04,08,9.10
2016,03,12,04,09,7.10
2016,03,12,04,10,6.00
2016,03,12,04,11,6.90
2016,03,12,04,12,5.90
2016,03,12,04,13,7.40
2016,03,12,04,14,7.10
2016,03,12,04,15,4.80
2016,03,12,04,16,5.70
2016,03,12,04,17,5.50
2016,03,12,04,18,5.20
2016,03,12,04,19,6.20
2016,03,12,04,20,11.00
2016,03,12,04,21,7.80
2016,03,12,04,22,9.10
2016,03,12,04,23,9.80
2016,03,12,04,24,8.10
2016,03,12,04,25,9.20
2016,03,12,04,26,7.00
2016,03,12,04,27,10.40
2016,03,12,04,28,9.50
2016,03,12,04,29,10.10
2016,03,12,04,30,9.90
2016,03,12,04,31,10.50
2016,03,12,04,32,7.50
2016,03,12,04,33,11.70
2016,03,12,04,34,13.70
2016,03,12,04,35,11.40
2016,03,12,04,36,10.70
2016,03,12,04,37,15.40
2016,03,12,04,38,12.30
2016,03,12,04,39,13.00
2016,03,12,04,40,15.00
2016,03,12,04,41,20.40
2016,03,12,04,42,16.30
2016,03,12,04,43,13.50
2016,03,12,04,44,13.90
2016,03,12,04,45,12.90
2016,03,12,04,46,12.00
2016,03,12,04,47,12.70
2016,03,12,04,48,11.20
2016,03,12,04,49,8.70
2016,03,12,04,50,10.90
2016,03,12,04,51,12.00
2016,03,12,04,52,14.00
2016,03,12,04,53,11.00
2016,03,12,04,54,11.50
2016,03,12,04,55,8.00
2016,03,12,04,56,10.90
2016,03,12,04,57,12.00
2016,03,12,04,58,8.80
2016,03,12,04,59,10.70
2016,03,12,05,00,11.00
2016,03,12,05,01,8.70
2016,03,12,05,02,12.20
2016,03,12,05,03,9.30
2016,03,12,05,04,5.40
2016,03,12,05,05,12.40
2016,03,12,05,06,10.10
2016,03,12,05,07,5.80
2016,03,12,05,08,9.70
2016,03,12,05,09,9.80
2016,03,12,05,10,12.00
2016,03,12,05,11,8.90
2016,03,12,05,12,9.80
2016,03,12,05,13,6.70
2016,03,12,05,14,6.90
2016,03,12,05,15,9.20
2016,03,12,05,16,7.20
2016,03,12,05,17,8.40
2016,03,12,05,18,11.70
2016,03,12,05,19,10.70
2016,03,12,05,20,8.90
2016,03,12,05,21,11.60
2016,03,12,05,22,11.90
2016,03,12,05,23,8.30
2016,03,12,05,24,8.40
2016,03,12,05,25,5.90
2016,03,12,05,26,8.20
2016,03,12,05,27,9.80
2016,03,12,05,28,7.30
2016,03,12,05,29,5.50
2016,03,12,05,30,7.30
2016,03,12,05,31,5.60
2016,03,12,05,32,10.00
2016,03,12,05,33,9.70
2016,03,12,05,34,7.10
2016,03,12,05,35,8.30
2016,03,12,05,36,6.90
2016,03,12,05,37,7.10
2016,03,12,05,38,9.60
2016,03,12,05,39,7.80
2016,03,12,05,40,4.50
2016,03,12,05,41,3.80
2016,03,12,05,42,6.10
2016,03,12,05,43,6.40
2016,03,12,05,44,7.70
2016,03,12,05,45,7.30
2016,03,12,05,46,4.60
2016,03,12,05,47,4.00
2016,03,12,05,48,3.80
2016,03,12,05,49,4.90
2016,03,12,05,50,4.40
2016,03,12,05,51,2.70
2016,03,12,05,52,1.90
2016,03,12,05,53,1.90
2016,03,12,05,54,0.80
2016,03,12,05,55,3.50
2016,03,12,05,56,4.60
2016,03,12,05,57,6.20
2016,03,12,05,58,6.30
2016,03,12,05,59,3.40
2016,03,12,06,00,4.20
2016,03,12,06,01,4.00
2016,03,12,06,02,4.90
2016,03,12,06,03,4.60
2016,03,12,06,04,4.90
2016,03,12,06,05,4.90
2016,03,12,06,06,5.40
2016,03,12,06,07,5.20
2016,03,12,06,08,7.50
2016,03,12,06,09,8.80
2016,03,12,06,10,8.70
2016,03,12,06,11,9.10
2016,03,12,06,12,9.10
2016,03,12,06,13,9.10
2016,03,12,06,14,4.50
2016,03,12,06,15,6.40
2016,03,12,06,16,5.20
2016,03,12,06,17,8.40
2016,03,12,06,18,13.90
2016,03,12,06,19,12.20
2016,03,12,06,20,12.30
2016,03,12,06,21,13.70
2016,03,12,06,22,13.60
2016,03,12,06,23,10.10
2016,03,12,06,24,11.00
2016,03,12,06,25,10.20
2016,03,12,06,26,10.80
2016,03,12,06,27,13.70
2016,03,12,06,28,9.70
2016,03,12,06,29,9.30
2016,03,12,06,30,5.50
2016,03,12,06,31,5.50
2016,03,12,06,32,5.10
2016,03,12,06,33,9.10
2016,03,12,06,34,7.00
2016,03,12,06,35,8.50
2016,03,12,06,36,4.60
2016,03,12,06,37,6.40
2016,03,12,06,38,5.50
2016,03,12,06,39,6.70
2016,03,12,06,40,6.70
2016,03,12,06,41,9.50
2016,03,12,06,42,7.00
2016,03,12,06,43,7.30
2016,03,12,06,44,6.90
2016,03,12,06,45,4.20
2016,03,12,06,46,6.60
2016,03,12,06,47,4.00
2016,03,12,06,48,6.10
2016,03,12,06,49,8.80
2016,03,12,06,50,6.40
2016,03,12,06,51,5.10
2016,03,12,06,52,4.60
2016,03,12,06,53,8.10
2016,03,12,06,54,8.30
2016,03,12,06,55,6.90
2016,03,12,06,56,6.00
2016,03,12,06,57,9.20
2016,03,12,06,58,6.80
2016,03,12,06,59,7.20
2016,03,12,07,00,6.40
2016,03,12,07,01,10.10
2016,03,12,07,02,11.10
2016,03,12,07,03,8.50
2016,03,12,07,04,11.90
2016,03,12,07,05,12.20
2016,03,12,07,06,7.50
2016,03,12,07,07,9.10
2016,03,12,07,08,8.30
2016,03,12,07,09,9.10
2016,03,12,07,10,13.20
2016,03,12,07,11,8.20
2016,03,12,07,12,10.60
2016,03,12,07,13,10.70
2016,03,12,07,14,11.10
2016,03,12,07,15,9.90
2016,03,12,07,16,10.20
2016,03,12,07,17,10.00
2016,03,12,07,18,8.70
2016,03,12,07,19,10.00
2016,03,12,07,20,10.00
2016,03,12,07,21,12.10
2016,03,12,07,22,11.80
2016,03,12,07,23,8.80
2016,03,12,07,24,13.20
2016,03,12,07,25,14.80
2016,03,12,07,26,12.00
2016,03,12,07,27,11.60
2016,03,12,07,28,12.30
2016,03,12,07,29,7.30
2016,03,12,07,30,8.60
2016,03,12,07,31,4.60
2016,03,12,07,32,4.50
2016,03,12,07,33,4.80
2016,03,12,07,34,5.70
2016,03,12,07,35,9.10
2016,03,12,07,36,5.20
2016,03,12,07,37,5.10
2016,03,12,07,38,3.90
2016,03,12,07,39,4.80
2016,03,12,07,40,7.30
2016,03,12,07,41,6.80
2016,03,12,07,42,6.40
2016,03,12,07,43,7.60
2016,03,12,07,44,6.20
2016,03,12,07,45,5.10
2016,03,12,07,46,4.00
2016,03,12,07,47,5.60
2016,03,12,07,48,1.40
2016,03,12,07,49,1.10
2016,03,12,07,50,2.20
2016,03,12,07,51,2.00
2016,03,12,07,52,0.70
2016,03,12,07,53,0.10
2016,03,12,07,54,0.00
2016,03,12,07,55,0.20
2016,03,12,07,56,0.20
2016,03,12,07,57,0.20
2016,03,12,07,58,0.40
2016,03,12,07,59,0.00
2016,03,12,08,00,0.00
2016,03,12,08,01,0.00
2016,03,12,08,02,0.00
2016,03,12,08,03,0.00
2016,03,12,08,04,0.10
2016,03,12,08,05,1.90
2016,03,12,08,06,0.30
2016,03,12,08,07,0.20
2016,03,12,08,08,1.00
2016,03,12,08,09,0.90
2016,03,12,08,10,0.40
2016,03,12,08,11,0.10
2016,03,12,08,12,2.40
2016,03,12,08,13,2.70
2016,03,12,08,14,3.00
2016,03,12,08,15,4.10
2016,03,12,08,16,3.20
2016,03,12,08,17,2.00
2016,03,12,08,18,1.00
2016,03,12,08,19,0.90
2016,03,12,08,20,0.30
2016,03,12,08,21,0.00
2016,03,12,08,22,0.10
2016,03,12,08,23,2.30
2016,03,12,08,24,1.30
2016,03,12,08,25,4.80
2016,03,12,08,26,1.40
2016,03,12,08,27,0.00
2016,03,12,08,28,0.10
2016,03,12,08,29,0.10
2016,03,12,08,30,0.00
2016,03,12,08,31,1.30
2016,03,12,08,32,3.20
2016,03,12,08,33,3.80
2016,03,12,08,34,3.30
2016,03,12,08,35,2.40
2016,03,12,08,36,2.10
2016,03,12,08,37,3.60
2016,03,12,08,38,1.10
2016,03,12,08,39,0.40
2016,03,12,08,40,1.10
2016,03,12,08,41,1.10
2016,03,12,08,42,1.00
2016,03,12,08,43,0.20
2016,03,12,08,44,1.20
2016,03,12,08,45,1.00
2016,03,12,08,46,0.10
2016,03,12,08,47,0.00
2016,03,12,08,48,0.50
2016,03,12,08,49,1.10
2016,03,12,08,50,0.40
2016,03,12,08,51,0.50
2016,03,12,08,52,2.50
2016,03,12,08,53,2.90
2016,03,12,08,54,2.70
2016,03,12,08,55,2.80
2016,03,12,08,56,0.80
2016,03,12,08,57,0.70
2016,03,12,08,58,0.70
2016,03,12,08,59,0.90
2016,03,12,09,00,1.20
2016,03,12,09,01,0.70
2016,03,12,09,02,0.40
2016,03,12,09,03,0.70
2016,03,12,09,04,0.00
2016,03,12,09,05,0.00
2016,03,12,09,06,0.00
2016,03,12,09,07,0.00
2016,03,12,09,08,0.00
2016,03,12,09,09,0.10
2016,03,12,09,10,0.00
2016,03,12,09,11,0.20
2016,03,12,09,12,1.00
2016,03,12,09,13,2.90
2016,03,12,09,14,0.90
2016,03,12,09,15,0.20
2016,03,12,09,16,0.00
2016,03,12,09,17,0.00
2016,03,12,09,18,0.00
2016,03,12,09,19,0.00
2016,03,12,09,20,0.00
2016,03,12,09,21,0.00
2016,03,12,09,22,0.00
2016,03,12,09,23,0.00
2016,03,12,09,24,0.00
2016,03,12,09,25,0.00
2016,03,12,09,26,0.00
2016,03,12,09,27,0.00
2016,03,12,09,28,0.00
2016,03,12,09,29,0.00
2016,03,12,09,30,0.00
2016,03,12,09,31,0.00
2016,03,12,09,32,0.00
2016,03,12,09,33,0.00
2016,03,12,09,34,0.00
2016,03,12,09,35,0.00
2016,03,12,09,36,0.00
2016,03,12,09,37,0.00
2016,03,12,09,38,0.00
2016,03,12,09,39,0.00
2016,03,12,09,40,0.00
2016,03,12,09,41,0.00
2016,03,12,09,42,0.00
2016,03,12,09,43,0.00
2016,03,12,09,44,0.00
2016,03,12,09,45,0.00
2016,03,12,09,46,0.00
2016,03,12,09,47,0.00
2016,03,12,09,48,0.00
2016,03,12,09,49,0.00
2016,03,12,09,50,0.00
2016,03,12,09,51,0.00
2016,03,12,09,52,0.00
2016,03,12,09,53,0.00
2016,03,12,09,54,0.00
2016,03,12,09,55,0.00
2016,03,12,09,56,0.00
2016,03,12,09,57,0.00
2016,03,12,09,58,0.00
2016,03,12,09,59,0.00
2016,03,12,10,00,0.00
2016,03,12,10,01,0.00
2016,03,12,10,02,0.00
2016,03,12,10,03,0.00
2016,03,12,10,04,0.00
2016,03,12,10,05,0.00
2016,03,12,10,06,0.00
2016,03,12,10,07,0.00
2016,03,12,10,08,0.00
2016,03,12,10,09,0.00
2016,03,12,10,10,0.80
2016,03,12,10,11,4.60
2016,03,12,10,12,3.10
2016,03,12,10,13,1.40
2016,03,12,10,14,3.10
2016,03,12,10,15,4.90
2016,03,12,10,16,4.80
2016,03,12,10,17,2.80
2016,03,12,10,18,2.70
2016,03,12,10,19,1.50
2016,03,12,10,20,1.40
2016,03,12,10,21,0.40
2016,03,12,10,22,0.00
2016,03,12,10,23,0.00
2016,03,12,10,24,0.00
2016,03,12,10,25,0.00
2016,03,12,10,26,1.30
2016,03,12,10,27,1.90
2016,03,12,10,28,2.20
2016,03,12,10,29,0.60
2016,03,12,10,30,2.20
2016,03,12,10,31,4.20
2016,03,12,10,32,4.80
2016,03,12,10,33,6.50
2016,03,12,10,34,3.90
2016,03,12,10,35,4.10
2016,03,12,10,36,4.80
2016,03,12,10,37,3.20
2016,03,12,10,38,6.00
2016,03,12,10,39,3.60
2016,03,12,10,40,7.30
2016,03,12,10,41,4.20
2016,03,12,10,42,2.50
2016,03,12,10,43,3.30
2016,03,12,10,44,3.80
2016,03,12,10,45,5.60
2016,03,12,10,46,3.70
2016,03,12,10,47,5.40
2016,03,12,10,48,2.60
2016,03,12,10,49,4.30
2016,03,12,10,50,7.80
2016,03,12,10,51,6.30
2016,03,12,10,52,2.80
2016,03,12,10,53,6.00
2016,03,12,10,54,6.90
2016,03,12,10,55,4.30
2016,03,12,10,56,4.20
2016,03,12,10,57,0.60
2016,03,12,10,58,2.00
2016,03,12,10,59,4.10
2016,03,12,11,00,3.10
2016,03,12,11,01,4.80
2016,03,12,11,02,2.10
2016,03,12,11,03,0.90
2016,03,12,11,04,2.20
2016,03,12,11,05,0.50
2016,03,12,11,06,0.90
2016,03,12,11,07,0.80
2016,03,12,11,08,0.20
2016,03,12,11,09,3.30
2016,03,12,11,10,3.70
2016,03,12,11,11,4.40
2016,03,12,11,12,3.60
2016,03,12,11,13,3.60
2016,03,12,11,14,3.70
2016,03,12,11,15,3.90
2016,03,12,11,16,1.80
2016,03,12,11,17,2.70
2016,03,12,11,18,3.50
2016,03,12,11,19,3.60
2016,03,12,11,20,7.20
2016,03,12,11,21,2.70
2016,03,12,11,22,2.90
2016,03,12,11,23,3.30
2016,03,12,11,24,4.80
2016,03,12,11,25,4.10
2016,03,12,11,26,4.90
2016,03,12,11,27,4.20
2016,03,12,11,28,2.90
2016,03,12,11,29,3.40
2016,03,12,11,30,3.20
2016,03,12,11,31,4.10
2016,03,12,11,32,2.80
2016,03,12,11,33,1.50
2016,03,12,11,34,2.90
2016,03,12,11,35,4.70
2016,03,12,11,36,2.90
2016,03,12,11,37,1.70
2016,03,12,11,38,2.30
2016,03,12,11,39,1.40
2016,03,12,11,40,1.90
2016,03,12,11,41,5.20
2016,03,12,11,42,5.80
2016,03,12,11,43,1.80
2016,03,12,11,44,5.80
2016,03,12,11,45,4.80
2016,03,12,11,46,5.90
2016,03,12,11,47,5.00
2016,03,12,11,48,4.10
2016,03,12,11,49,5.60
2016,03,12,11,50,5.50
2016,03,12,11,51,4.20
2016,03,12,11,52,3.50
2016,03,12,11,53,12.50
2016,03,12,11,54,12.30
2016,03,12,11,55,14.30
2016,03,12,11,56,13.50
2016,03,12,11,57,15.30
2016,03,12,11,58,15.60
2016,03,12,11,59,17.20
2016,03,12,12,00,15.70
2016,03,12,12,01,14.50
2016,03,12,12,02,12.40
2016,03,12,12,03,10.60
2016,03,12,12,04,10.40
2016,03,12,12,05,11.20
2016,03,12,12,06,12.40
2016,03,12,12,07,13.90
2016,03,12,12,08,14.80
2016,03,12,12,09,13.70
2016,03,12,12,10,14.00
2016,03,12,12,11,14.80
2016,03,12,12,12,15.80
2016,03,12,12,13,14.70
2016,03,12,12,14,15.90
2016,03,12,12,15,17.70
2016,03,12,12,16,19.10
2016,03,12,12,17,18.20
2016,03,12,12,18,17.00
2016,03,12,12,19,17.80
2016,03,12,12,20,15.50
2016,03,12,12,21,20.30
2016,03,12,12,22,21.50
2016,03,12,12,23,19.40
2016,03,12,12,24,19.20
2016,03,12,12,25,18.30
2016,03,12,12,26,20.70
2016,03,12,12,27,18.80
2016,03,12,12,28,16.70
2016,03,12,12,29,15.60
2016,03,12,12,30,20.20
2016,03,12,12,31,20.00
2016,03,12,12,32,20.50
2016,03,12,12,33,19.50
2016,03,12,12,34,16.20
2016,03,12,12,35,16.90
2016,03,12,12,36,21.90
2016,03,12,12,37,21.30
2016,03,12,12,38,17.50
2016,03,12,12,39,19.90
2016,03,12,12,40,21.30
2016,03,12,12,41,24.40
2016,03,12,12,42,24.40
2016,03,12,12,43,29.30
2016,03,12,12,44,31.00
2016,03,12,12,45,33.30
2016,03,12,12,46,34.60
2016,03,12,12,47,35.00
2016,03,12,12,48,34.30
2016,03,12,12,49,26.30
2016,03,12,12,50,28.60
2016,03,12,12,51,32.90
2016,03,12,12,52,29.60
2016,03,12,12,53,30.30
2016,03,12,12,54,28.10
2016,03,12,12,55,31.50
2016,03,12,12,56,31.60
2016,03,12,12,57,32.40
2016,03,12,12,58,29.70
2016,03,12,12,59,27.60
2016,03,12,13,00,25.70
2016,03,12,13,01,24.40
2016,03,12,13,02,23.80
2016,03,12,13,03,24.40
2016,03,12,13,04,31.00
2016,03,12,13,05,29.40
2016,03,12,13,06,32.50
2016,03,12,13,07,35.30
2016,03,12,13,08,32.80
2016,03,12,13,09,36.80
2016,03,12,13,10,29.40
2016,03,12,13,11,23.50
2016,03,12,13,12,24.30
2016,03,12,13,13,25.60
2016,03,12,13,14,21.80
2016,03,12,13,15,21.90
2016,03,12,13,16,18.20
2016,03,12,13,17,22.00
2016,03,12,13,18,25.30
2016,03,12,13,19,22.00
2016,03,12,13,20,28.00
2016,03,12,13,21,28.60
2016,03,12,13,22,30.00
2016,03,12,13,23,28.70
2016,03,12,13,24,28.60
2016,03,12,13,25,27.80
2016,03,12,13,26,28.30
2016,03,12,13,27,30.50
2016,03,12,13,28,32.10
2016,03,12,13,29,30.30
2016,03,12,13,30,29.40
2016,03,12,13,31,27.80
2016,03,12,13,32,31.20
2016,03,12,13,33,33.10
2016,03,12,13,34,32.70
2016,03,12,13,35,29.40
2016,03,12,13,36,24.20
2016,03,12,13,37,27.70
2016,03,12,13,38,25.60
2016,03,12,13,39,27.80
2016,03,12,13,40,27.20
2016,03,12,13,41,20.30
2016,03,12,13,42,19.30
2016,03,12,13,43,22.20
2016,03,12,13,44,21.50
2016,03,12,13,45,26.00
2016,03,12,13,46,20.30
2016,03,12,13,47,14.20
2016,03,12,13,48,15.00
2016,03,12,13,49,22.70
2016,03,12,13,50,17.00
2016,03,12,13,51,20.90
2016,03,12,13,52,21.60
2016,03,12,13,53,14.80
2016,03,12,13,54,16.40
2016,03,12,13,55,16.20
2016,03,12,13,56,17.80
2016,03,12,13,57,17.20
2016,03,12,13,58,15.00
2016,03,12,13,59,19.80
2016,03,12,14,00,17.80
2016,03,12,14,01,19.40
2016,03,12,14,02,14.40
2016,03,12,14,03,14.70
2016,03,12,14,04,20.30
2016,03,12,14,05,20.80
2016,03,12,14,06,15.00
2016,03,12,14,07,16.40
2016,03,12,14,08,16.90
2016,03,12,14,09,20.70
2016,03,12,14,10,26.90
2016,03,12,14,11,19.80
2016,03,12,14,12,16.00
2016,03,12,14,13,16.70
2016,03,12,14,14,20.20
2016,03,12,14,15,21.90
2016,03,12,14,16,22.20
2016,03,12,14,17,18.90
2016,03,12,14,18,19.50
2016,03,12,14,19,16.70
2016,03,12,14,20,18.90
2016,03,12,14,21,21.20
2016,03,12,14,22,13.60
2016,03,12,14,23,9.70
2016,03,12,14,24,13.90
2016,03,12,14,25,17.50
2016,03,12,14,26,13.40
2016,03,12,14,27,18.70
2016,03,12,14,28,12.60
2016,03,12,14,29,10.00
2016,03,12,14,30,12.80
2016,03,12,14,31,20.50
2016,03,12,14,32,21.90
2016,03,12,14,33,21.60
2016,03,12,14,34,16.20
2016,03,12,14,35,20.40
2016,03,12,14,36,22.10
2016,03,12,14,37,18.00
2016,03,12,14,38,19.00
2016,03,12,14,39,17.10
2016,03,12,14,40,12.50
2016,03,12,14,41,16.70
2016,03,12,14,42,22.20
2016,03,12,14,43,26.50
2016,03,12,14,44,27.80
2016,03,12,14,45,18.60
2016,03,12,14,46,21.30
2016,03,12,14,47,25.20
2016,03,12,14,48,26.30
2016,03,12,14,49,19.40
2016,03,12,14,50,22.50
2016,03,12,14,51,25.20
2016,03,12,14,52,24.70
2016,03,12,14,53,23.90
2016,03,12,14,54,19.10
2016,03,12,14,55,16.70
2016,03,12,14,56,23.10
2016,03,12,14,57,17.10
2016,03,12,14,58,21.20
2016,03,12,14,59,21.90
2016,03,12,15,00,23.40
2016,03,12,15,01,25.90
2016,03,12,15,02,19.50
2016,03,12,15,03,16.70
2016,03,12,15,04,18.50
2016,03,12,15,05,21.50
2016,03,12,15,06,15.40
2016,03,12,15,07,16.70
2016,03,12,15,08,22.00
2016,03,12,15,09,22.10
2016,03,12,15,10,15.90
2016,03,12,15,11,17.60
2016,03,12,15,12,18.40
2016,03,12,15,13,15.00
2016,03,12,15,14,22.40
2016,03,12,15,15,19.00
2016,03,12,15,16,12.50
2016,03,12,15,17,21.70
2016,03,12,15,18,20.80
2016,03,12,15,19,20.50
2016,03,12,15,20,16.20
2016,03,12,15,21,13.70
2016,03,12,15,22,14.50
2016,03,12,15,23,23.80
2016,03,12,15,24,19.70
2016,03,12,15,25,20.40
2016,03,12,15,26,21.60
2016,03,12,15,27,23.80
2016,03,12,15,28,16.30
2016,03,12,15,29,20.70
2016,03,12,15,30,16.90
2016,03,12,15,31,14.70
2016,03,12,15,32,19.40
2016,03,12,15,33,19.00
2016,03,12,15,34,16.10
2016,03,12,15,35,15.80
2016,03,12,15,36,25.50
2016,03,12,15,37,24.40
2016,03,12,15,38,22.40
2016,03,12,15,39,23.70
2016,03,12,15,40,21.50
2016,03,12,15,41,20.90
2016,03,12,15,42,18.00
2016,03,12,15,43,12.00
2016,03,12,15,44,15.90
2016,03,12,15,45,17.00
2016,03,12,15,46,14.70
2016,03,12,15,47,10.40
2016,03,12,15,48,11.90
2016,03,12,15,49,11.00
2016,03,12,15,50,11.20
2016,03,12,15,51,14.50
2016,03,12,15,52,17.40
2016,03,12,15,53,23.20
2016,03,12,15,54,15.70
2016,03,12,15,55,11.80
2016,03,12,15,56,25.50
2016,03,12,15,57,22.20
2016,03,12,15,58,23.70
2016,03,12,15,59,17.20
2016,03,12,16,00,15.90
2016,03,12,16,01,11.10
2016,03,12,16,02,19.10
2016,03,12,16,03,20.00
2016,03,12,16,04,19.40
2016,03,12,16,05,19.30
2016,03,12,16,06,19.00
2016,03,12,16,07,22.40
2016,03,12,16,08,17.10
2016,03,12,16,09,13.70
2016,03,12,16,10,15.90
2016,03,12,16,11,20.10
2016,03,12,16,12,24.90
2016,03,12,16,13,25.60
2016,03,12,16,14,21.30
2016,03,12,16,15,20.30
2016,03,12,16,16,22.90
2016,03,12,16,17,19.90
2016,03,12,16,18,18.00
2016,03,12,16,19,22.20
2016,03,12,16,20,24.90
2016,03,12,16,21,18.40
2016,03,12,16,22,16.90
2016,03,12,16,23,18.10
2016,03,12,16,24,22.50
2016,03,12,16,25,22.90
2016,03,12,16,26,18.90
2016,03,12,16,27,18.50
2016,03,12,16,28,19.40
2016,03,12,16,29,13.50
2016,03,12,16,30,19.20
2016,03,12,16,31,16.00
2016,03,12,16,32,16.20
2016,03,12,16,33,17.20
2016,03,12,16,34,21.30
2016,03,12,16,35,19.70
2016,03,12,16,36,13.90
2016,03,12,16,37,15.40
2016,03,12,16,38,19.00
2016,03,12,16,39,18.00
2016,03,12,16,40,19.90
2016,03,12,16,41,20.20
2016,03,12,16,42,16.70
2016,03,12,16,43,19.50
2016,03,12,16,44,17.30
2016,03,12,16,45,13.90
2016,03,12,16,46,18.00
2016,03,12,16,47,19.50
2016,03,12,16,48,20.10
2016,03,12,16,49,18.60
2016,03,12,16,50,20.30
2016,03,12,16,51,17.60
2016,03,12,16,52,17.70
2016,03,12,16,53,14.80
2016,03,12,16,54,13.60
2016,03,12,16,55,12.20
2016,03,12,16,56,12.30
2016,03,12,16,57,12.40
2016,03,12,16,58,11.60
2016,03,12,16,59,12.00
2016,03,12,17,00,14.10
2016,03,12,17,01,10.60
2016,03,12,17,02,13.50
2016,03,12,17,03,11.60
2016,03,12,17,04,7.90
2016,03,12,17,05,7.60
2016,03,12,17,06,8.80
2016,03,12,17,07,8.80
2016,03,12,17,08,9.90
2016,03,12,17,09,6.30
2016,03,12,17,10,4.70
2016,03,12,17,11,7.10
2016,03,12,17,12,7.50
2016,03,12,17,13,4.40
2016,03,12,17,14,4.50
2016,03,12,17,15,3.20
2016,03,12,17,16,2.40
2016,03,12,17,17,2.40
2016,03,12,17,18,1.90
2016,03,12,17,19,3.20
2016,03,12,17,20,1.60
2016,03,12,17,21,2.60
2016,03,12,17,22,4.60
2016,03,12,17,23,3.50
2016,03,12,17,24,4.30
2016,03,12,17,25,7.40
2016,03,12,17,26,7.40
2016,03,12,17,27,5.90
2016,03,12,17,28,7.90
2016,03,12,17,29,7.10
2016,03,12,17,30,6.70
2016,03,12,17,31,6.10
2016,03,12,17,32,12.10
2016,03,12,17,33,12.40
2016,03,12,17,34,12.80
2016,03,12,17,35,10.10
2016,03,12,17,36,10.00
2016,03,12,17,37,9.40
2016,03,12,17,38,10.70
2016,03,12,17,39,6.70
2016,03,12,17,40,11.10